Location: Pedholt
(56.0260°N, 10.2097°E)
Time: 20:15:12
(UTC+00:00)

Transit 2A Rocket - Pass Details

Date: 06 August 2021
Orbit: 586 x 917 km, 66.7° (Epoch: 27 September)

Event Time Altitude Azimuth Distance (km) Brightness Sun altitude
Rises 15:26:54 0° 274° (W) 3,001 9.1 30.0°
Reaches altitude 10° 15:29:25 10° 287° (WNW) 2,141 8.4 29.6°
Maximum altitude 15:33:38 28° 347° (NNW) 1,353 6.5 29.1°
Drops below altitude 10° 15:38:12 10° 46° (NE) 2,336 7.1 28.5°
Sets 15:41:04 0° 58° (ENE) 3,327 7.8 28.1°
